SCP
0 0 0 1 1 1 0 0 0 0 0 0 0 0 0 0 0 0 0 0 0 0 0 0 0 0 0 0 0 0 0 0 0 0 0 0 0 0 0 0 0 0 0
0 0 0 0 0 0 0 0 0 0 0 0 0 0 0 0 0 0 0 0 0 0 0 0 0 0 0 0 0 0 0 0 0 0 0 0 0 0 0 0 0 0 0
0 0 0 0 0 0 0 0 0 0 0 0 0 0 0 0 0 0 0 0 0 0 0 0 0 0 0 0 0 0 0 0 0 0 0 0 0 0 0 0 0 0 0
0 0 0 0 0 0 0 0 0 0 0 0 0 0 0 0 0 0 0 0 0 0 0 0 0 0 0 0 0 0 0 0 0 0 0 0 0 0 0 0 0 0 0
0 0 0 0 0 0 0 0 0 0 0 0 0 0 0 0 0 0 0 0 0 0 0 0 0 0 0 0 0 0 0 0 1 0 0 0 0 0 0 0 0 0 0
0 0 0 0 0 0 0 0 0 0 0 0 0 0 0 0 0 0 0 0 0 0 0 0 0 0 0 0 0 0 0 0 0 0 0 0 0 0 0 0 0 0 0
0 0 0 0 0 0 0 0 0 0 0 0 0 0 0 0 0 0 0 0 0 0 0 0 0 0 0 0 0 0 0 0 0 0 0 0 0 0 0 0 1 0 0
0 0 0 0 0 0 0 0 0 0 0 0 0 0 0 0 0 0 0 0 0 0 0 0 0 0 1 0 0 0 1 0 0 0 0 1 1 1 0 0 1 1 0
0 0 0 0 0 0 0 0 0 0 0 0 0 0 0 0 0 0 0 0 0 0 0 0 0 0 0 0 0 0 0 0 0 0 0 1 1 0 0 0 1 1 0
0 0 0 0 0 0 0 0 0 0 0 0 0 0 0 0 0 0 0 0 0 0 0 0 0 0 0 0 0 0 0 0 0 0 0 0 0 0 0 0 0 1 0
0 0 0 0 0 0 0 0 0 0 0 0 0 0 0 0 0 0 0 0 0 0 0 0 0 0 0 0 0 0 0 0 0 0 0 0 0 0 0 0 0 0 0
0 0 0 0 0 0 0 0 0 0 0 0 0 0 0 0 0 0 0 0 0 0 0 0 0 0 0 0 0 0 0 0 0 0 0 0 0 0 0 0 0 0 0
1 0 0 0 0 0 0 0 0 0 0 0 0 0 0 0 0 0 0 0 0 0 0 0 0 0 0 0 0 0 0 0 0 0 0 0 0 0 0 0 0 0 0
1 1 1 1 0 0 0 0 0 0 0 0 0 0 0 0 0 0 0 0 0 0 0 0 0 0 0 0 0 0 0 0 0 0 0 0 0 0 0 0 0 0 0
1 1 1 1 0 0 0 0 0 0 0 0 0 0 0 0 0 0 0 0 0 0 0 0 0 0 0 0 0 0 0 0 0 0 0 0 0 0 0 0 0 0 0
1 0 0 0 1 1 1 0 0 0 0 0 0 0 0 0 0 0 0 0 0 0 0 0 0 0 0 0 0 0 0 0 0 0 0 0 0 0 0 0 0 0 0
1 1 1 1 1 1 1 1 1 1 0 0 0 0 0 0 0 0 0 0 0 0 0 0 0 0 0 0 0 0 0 0 0 0 0 0 0 0 0 0 0 0 0
1 1 1 1 1 1 1 1 1 1 1 1 0 0 0 0 0 0 0 0 0 0 0 0 0 0 0 0 0 0 0 0 0 0 0 0 0 0 0 0 0 0 0
2 2 1 1 1 1 1 1 1 1 1 1 1 1 1 0 0 0 0 0 0 0 0 0 0 0 0 0 0 0 0 0 0 0 0 0 0 0 0 0 0 0 0
2 2 1 1 1 1 2 1 1 1 1 1 1 1 1 1 1 0 0 0 0 0 0 0 0 0 0 0 0 0 0 0 0 0 0 0 0 0 0 0 0 0 0
2 2 2 1 1 1 1 1 1 1 1 0 0 1 1 1 0 0 0 0 0 0 0 0 0 0 0 0 0 0 0 0 0 0 0 0 0 0 0 0 0 0 0
1 2 2 2 1 1 1 0 0 1 0 0 0 0 0 0 0 0 0 0 0 0 0 0 0 0 0 0 0 0 0 0 0 0 0 0 0 0 0 0 0 0 0
1 1 1 1 1 1 0 0 0 0 0 0 0 0 0 0 0 0 0 0 0 0 0 0 0 0 0 0 0 0 0 0 0 0 0 0 0 0 0 0 0 0 0
1 1 1 1 1 1 0 0 0 0 0 0 0 0 0 0 0 0 0 0 0 0 0 0 0 0 0 0 0 0 0 0 0 0 0 0 0 0 0 0 0 0 0
1 1 1 1 1 1 0 0 0 0 0 0 0 0 0 0 0 0 0 0 0 0 0 0 0 0 0 0 0 0 0 0 0 0 0 0 0 0 0 0 0 0 0
1 1 1 1 1 0 0 0 0 0 0 0 0 0 0 0 0 0 0 0 0 0 0 0 0 0 0 0 0 0 0 0 0 0 0 0 0 0 0 0 0 0 0
Wind_Speed
3 2 1 1 2 1 1 1 1 2 2 1 1 2 2 2 2 2 1 4 6 6 7 8 8 8 8 9 9 9 9 9 8 7 7 8 8 8 9 9 8 8 8
3 3 2 2 2 1 1 1 1 1 1 1 1 1 1 1 1 1 1 1 4 5 6 7 7 7 8 8 8 9 9 9 8 8 8 7 7 7 8 8 8 8 8
4 4 3 2 2 2 2 1 2 2 1 1 2 2 1 1 1 1 1 0 1 3 4 5 6 7 7 8 9 9 8 8 9 9 8 8 8 7 7 8 8 8 8
5 4 3 2 2 2 2 2 1 2 2 1 1 1 1 1 0 0 0 1 1 1 2 4 5 5 7 8 8 9 9 8 8 9 9 9 9 8 8 8 8 8 8
5 4 3 3 3 3 2 2 2 2 1 1 1 2 2 1 1 0 0 1 1 1 1 1 2 3 6 7 7 8 8 9 9 9 10 10 10 10 9 9 9 9 9
5 4 3 4 3 3 2 2 2 2 2 1 2 3 2 2 1 1 1 1 0 1 1 0 0 1 3 4 5 6 7 9 9 10 10 11 11 10 10 10 10 9 10
5 5 4 4 3 3 3 3 2 3 2 1 2 3 3 3 2 2 1 1 1 0 0 0 0 0 1 2 3 4 5 7 7 8 9 10 10 10 11 11 11 10 10
6 5 5 4 4 3 3 3 3 2 2 2 2 2 2 2 3 3 2 1 1 1 0 0 1 1 0 0 1 2 3 5 6 7 7 7 8 10 11 12 12 11 11
5 5 6 5 4 4 3 3 3 4 3 2 1 3 3 2 1 2 3 2 2 1 1 1 0 1 1 1 0 1 2 2 4 5 6 6 6 7 8 10 12 12 12
5 5 6 5 5 4 4 3 3 2 3 2 1 1 1 2 2 0 2 2 2 2 2 1 1 0 1 1 1 1 1 1 1 2 2 3 4 5 7 8 9 11 12
4 5 5 5 5 4 4 4 3 3 2 3 2 2 2 2 1 2 1 2 2 2 2 1 1 1 0 1 1 2 2 2 1 1 1 2 3 4 5 7 8 9 10
3 4 5 5 5 4 4 4 4 4 3 3 2 2 2 2 2 2 2 1 1 2 2 1 1 1 1 1 2 2 2 2 2 2 2 3 4 4 5 5 6 7 8
3 5 5 5 4 4 5 4 4 4 4 4 3 2 2 2 2 3 3 1 0 1 2 1 1 1 1 1 1 2 2 3 3 3 3 3 4 4 4 5 6 6 6
5 5 6 6 5 6 5 5 3 4 3 4 4 3 2 2 2 3 3 3 1 1 1 2 2 1 1 1 2 2 2 3 4 4 4 4 5 5 5 5 5 6 6
5 6 6 6 6 6 6 6 4 4 4 4 4 4 2 2 2 2 2 3 4 2 2 2 2 2 1 1 2 2 3 4 5 5 6 6 6 6 6 6 6 6 7
5 6 7 7 6 6 6 6 4 4 5 4 3 4 3 2 2 2 2 2 2 3 3 2 2 2 2 2 2 3 4 6 7 7 7 7 7 7 7 7 7 8 8
6 7 7 7 7 7 7 6 6 6 6 5 4 5 5 4 3 2 2 2 2 3 3 2 2 2 2 3 2 2 3 4 4 8 9 9 8 8 8 8 8 8 9
7 7 7 7 8 8 8 8 8 7 7 7 7 6 6 4 5 4 3 4 3 4 4 4 2 2 3 3 3 3 3 4 4 7 9 10 10 9 9 9 9 9 9
6 6 7 8 8 8 8 9 8 8 8 8 8 8 7 7 6 5 5 5 4 4 4 3 3 2 3 2 3 3 4 3 5 5 8 9 10 10 10 10 10 10 10
7 8 8 8 8 8 8 8 8 8 8 8 8 8 8 8 8 7 6 6 5 4 4 4 4 3 3 3 3 3 4 3 4 4 5 6 8 9 10 11 11 11 12
8 7 7 7 7 7 7 8 8 8 8 8 8 8 9 10 10 8 6 7 6 5 4 4 4 3 4 3 4 3 4 4 5 4 4 4 4 5 6 9 11 12 12
6 6 7 8 8 7 9 12 10 8 8 8 8 7 8 9 10 12 12 10 9 7 7 5 5 6 7 5 4 4 4 4 5 3 3 4 3 6 6 6 10 12 13
5 6 6 7 7 8 9 11 12 8 7 7 7 6 6 6 7 7 9 10 11 12 11 7 8 9 7 6 5 6 6 6 7 4 3 7 5 8 7 8 12 14 15
4 5 5 6 6 6 8 9 10 8 6 6 6 6 6 6 6 7 7 7 7 8 9 9 9 9 8 7 6 7 7 7 7 6 5 7 7 8 8 8 11 15 16
3 3 2 4 4 4 6 8 8 5 5 6 6 5 6 6 7 7 6 7 7 6 7 10 11 10 11 11 7 4 5 5 7 6 5 6 6 7 7 8 9 13 15
1 1 1 1 2 3 3 6 7 4 4 4 4 4 6 6 6 5 6 6 7 7 5 5 6 8 8 9 9 8 7 7 7 6 5 5 6 5 6 5 6 6 8
Wind_Direction
152 142 126 110 104 100 104 95 84 86 73 66 95 132 143 149 155 153 185 192 187 190 185 184 184 184 184 185 184 183 183 181 177 173 175 178 176 175 174 172 171 170 167
155 149 139 134 131 129 116 108 101 89 68 55 49 68 114 136 149 153 167 217 205 195 197 197 194 193 194 193 194 193 193 191 185 184 185 185 184 184 185 182 182 181 177
158 151 148 153 152 134 121 98 80 70 73 63 45 39 67 100 126 157 166 174 222 212 209 207 204 207 207 203 202 201 202 199 194 193 192 190 190 191 193 192 191 189 187
158 150 154 156 145 133 126 117 91 78 62 62 56 28 36 42 34 175 166 183 189 219 224 222 216 213 217 215 210 206 204 205 203 201 200 199 199 198 199 201 199 195 196
154 150 149 143 137 130 127 133 89 95 90 69 72 49 26 24 352 350 15 227 202 198 211 249 242 227 228 227 223 217 209 210 208 208 209 209 208 205 205 205 205 202 202
149 142 134 133 133 127 120 112 102 78 80 78 70 54 28 10 16 16 335 312 229 196 187 200 340 275 250 238 229 224 215 214 213 213 216 219 216 211 209 210 209 209 209
149 141 133 131 134 136 140 133 112 90 63 62 80 43 16 17 30 23 2 4 6 354 161 182 176 202 312 284 243 232 226 223 222 219 220 223 221 216 214 214 212 212 212
152 150 143 145 142 130 126 128 126 115 73 57 112 103 42 1 2 16 15 24 7 8 349 235 168 185 210 278 303 260 241 233 229 224 225 227 224 222 220 218 217 215 216
157 149 151 147 147 144 148 147 142 136 127 72 74 140 146 198 309 347 10 22 10 16 357 345 195 188 199 197 241 269 255 244 243 237 233 228 225 227 228 225 223 220 221
156 154 153 151 150 150 153 159 144 138 135 133 93 57 104 147 145 76 345 358 6 14 352 353 7 0 196 199 226 239 235 216 225 245 246 230 229 233 233 232 232 230 227
162 162 157 154 155 157 159 151 142 143 140 147 152 137 101 72 86 136 180 332 354 355 348 340 333 317 265 218 224 225 214 209 216 235 239 232 232 240 242 241 244 244 238
164 172 164 163 164 162 162 158 154 151 146 141 145 149 154 152 157 144 156 221 310 322 332 334 318 302 276 227 240 228 215 214 226 237 252 255 249 248 251 254 256 255 251
179 187 175 171 172 174 170 160 156 160 159 154 159 161 164 162 150 146 139 153 228 318 324 324 310 294 267 226 259 272 241 236 240 251 269 278 278 269 266 268 268 266 265
188 180 179 178 178 174 172 166 163 172 167 168 169 161 157 166 164 162 155 147 131 342 326 304 314 295 284 262 269 280 271 264 261 264 273 280 283 278 272 272 272 272 271
184 179 180 180 181 180 174 166 174 179 170 176 175 171 166 177 176 174 161 157 152 177 252 281 291 306 282 254 263 257 262 273 275 274 273 274 275 275 272 269 267 265 264
186 177 183 186 186 184 180 175 175 179 175 184 183 177 179 182 180 173 170 167 160 166 210 245 255 283 291 279 248 246 254 270 273 274 272 268 267 267 267 265 264 262 261
188 189 189 189 190 189 185 184 189 183 187 194 193 192 199 186 184 183 173 170 174 168 201 248 250 271 275 277 290 272 259 255 262 263 264 262 260 260 261 261 262 261 260
193 194 190 192 197 195 190 192 198 195 197 201 203 199 208 197 197 194 189 192 193 193 197 227 241 249 252 262 272 277 271 259 257 262 260 259 257 257 257 257 258 258 257
192 191 190 197 202 200 198 203 203 202 205 208 205 205 210 200 207 204 202 205 205 203 204 219 241 240 256 261 271 272 272 270 265 262 259 256 254 256 255 255 257 256 254
193 196 200 204 205 203 203 205 206 209 212 215 214 214 214 208 213 209 209 212 208 205 204 220 241 247 251 251 247 260 275 264 271 275 266 262 257 257 255 254 254 254 252
205 200 201 205 204 201 206 205 207 212 216 222 223 222 222 220 219 213 213 212 205 210 213 224 239 245 248 238 239 236 262 280 276 256 267 262 256 258 260 257 254 252 251
207 201 204 205 205 211 211 207 204 211 214 219 225 227 229 229 228 224 225 218 205 208 218 224 237 245 255 249 246 240 250 269 278 237 237 265 254 264 262 257 253 252 253
204 207 211 208 213 218 213 209 206 204 209 216 221 224 231 229 223 230 234 232 226 224 218 220 239 246 252 244 239 250 242 245 256 253 243 274 261 264 264 260 251 251 252
200 208 213 214 217 225 217 212 207 205 211 218 218 220 226 236 232 225 231 236 238 236 231 230 238 247 249 247 238 251 262 263 264 254 225 262 270 267 271 266 255 251 252
207 206 195 204 216 237 219 210 200 203 214 223 223 222 224 234 239 224 227 241 251 254 244 237 239 249 254 254 245 245 250 253 269 267 217 237 264 272 272 269 263 252 251
192 171 148 171 207 239 232 213 196 199 217 229 227 228 226 229 238 228 228 236 250 257 258 260 255 261 262 262 246 230 235 247 261 270 233 223 256 266 274 260 263 267 262